Time,TemperatureF,DewpointF,PressureIn,WindDirection,WindDirectionDegrees,WindSpeedMPH,WindSpeedGustMPH,Humidity,HourlyPrecipIn,Conditions,Clouds,dailyrainin,SoftwareType,DateUTC
2014-02-12 00:12:00,32.0,25.0,29.92,NNW,344,3.0,8.0,74,0.00,,,0.03,,2014-02-12 06:12:00,
2014-02-12 00:22:00,32.0,26.0,29.92,NNW,348,1.0,6.0,77,0.00,,,0.03,,2014-02-12 06:22:00,
2014-02-12 00:42:00,32.0,26.0,29.92,North,10,0.0,5.0,78,0.00,,,0.03,,2014-02-12 06:42:00,
2014-02-12 00:52:00,32.0,26.0,29.92,NNW,335,2.0,7.0,77,0.00,,,0.03,,2014-02-12 06:52:00,
2014-02-12 01:12:00,32.0,26.0,29.91,North,351,1.0,5.0,78,0.00,,,0.03,,2014-02-12 07:12:00,
2014-02-12 01:22:00,32.0,26.0,29.90,NNW,331,0.0,4.0,79,0.00,,,0.03,,2014-02-12 07:22:00,
2014-02-12 01:42:00,32.0,26.0,29.89,North,350,0.0,4.0,79,0.00,,,0.03,,2014-02-12 07:42:00,
2014-02-12 01:52:00,32.0,26.0,29.88,NNW,333,0.0,5.0,79,0.00,,,0.03,,2014-02-12 07:52:00,
2014-02-12 02:01:00,32.0,26.0,29.88,NNW,333,0.0,5.0,79,0.00,,,0.03,,2014-02-12 08:01:00,
2014-02-12 02:12:00,32.0,26.0,29.88,NNW,333,0.0,5.0,79,0.00,,,0.03,,2014-02-12 08:12:00,
2014-02-12 02:22:00,32.0,26.0,29.85,NNW,337,1.0,3.0,79,0.00,,,0.03,,2014-02-12 08:22:00,
2014-02-12 02:42:00,32.0,26.0,29.86,NNW,336,0.0,1.0,79,0.00,,,0.03,,2014-02-12 08:42:00,
2014-02-12 02:52:00,32.0,26.0,29.85,NW,319,0.0,3.0,79,0.00,,,0.03,,2014-02-12 08:52:00,
2014-02-12 03:12:00,32.0,26.0,29.85,West,279,1.0,4.0,79,0.00,,,0.03,,2014-02-12 09:12:00,
2014-02-12 03:22:00,32.0,27.0,29.85,West,272,1.0,6.0,80,0.00,,,0.03,,2014-02-12 09:22:00,
2014-02-12 03:43:00,32.0,27.0,29.85,West,274,0.0,4.0,80,0.00,,,0.03,,2014-02-12 09:43:00,
2014-02-12 03:53:00,32.0,27.0,29.85,West,265,1.0,6.0,81,0.00,,,0.03,,2014-02-12 09:53:00,
2014-02-12 04:13:00,32.0,27.0,29.85,NW,309,1.0,8.0,81,0.00,,,0.03,,2014-02-12 10:13:00,
2014-02-12 04:23:00,32.0,27.0,29.86,WNW,287,2.0,8.0,81,0.00,,,0.03,,2014-02-12 10:23:00,
2014-02-12 04:43:00,32.0,27.0,29.85,WNW,285,1.0,4.0,81,0.00,,,0.03,,2014-02-12 10:43:00,
2014-02-12 04:53:00,32.0,27.0,29.85,WNW,293,2.0,6.0,82,0.00,,,0.03,,2014-02-12 10:53:00,
2014-02-12 05:12:00,32.0,27.0,29.86,West,277,2.0,8.0,82,0.00,,,0.03,,2014-02-12 11:12:00,
2014-02-12 05:23:00,32.0,27.0,29.85,West,276,3.0,7.0,83,0.00,,,0.03,,2014-02-12 11:23:00,
2014-02-12 05:42:00,31.0,26.0,29.85,West,273,1.0,7.0,83,0.00,,,0.03,,2014-02-12 11:42:00,
2014-02-12 05:52:00,31.0,27.0,29.85,WNW,294,0.0,4.0,84,0.00,,,0.03,,2014-02-12 11:52:00,
2014-02-12 06:11:00,31.0,27.0,29.84,WNW,287,2.0,5.0,84,0.00,,,0.03,,2014-02-12 12:11:00,
2014-02-12 06:22:00,31.0,26.0,29.85,West,277,1.0,5.0,83,0.00,,,0.03,,2014-02-12 12:22:00,
2014-02-12 06:42:00,31.0,26.0,29.85,West,275,1.0,5.0,83,0.00,,,0.03,,2014-02-12 12:42:00,
2014-02-12 06:52:00,32.0,27.0,29.86,West,269,2.0,6.0,82,0.00,,,0.03,,2014-02-12 12:52:00,
2014-02-12 07:11:00,32.0,27.0,29.88,WNW,303,1.0,7.0,82,0.00,,,0.03,,2014-02-12 13:11:00,
2014-02-12 07:22:00,32.0,27.0,29.88,WNW,290,2.0,7.0,81,0.00,,,0.03,,2014-02-12 13:22:00,
2014-02-12 07:42:00,32.0,27.0,29.88,WNW,288,2.0,8.0,80,0.00,,,0.03,,2014-02-12 13:42:00,
2014-02-12 07:52:00,32.0,27.0,29.88,WNW,292,1.0,6.0,80,0.00,,,0.03,,2014-02-12 13:52:00,
2014-02-12 08:12:00,32.0,27.0,29.88,NW,322,2.0,5.0,80,0.00,,,0.03,,2014-02-12 14:12:00,
2014-02-12 08:22:00,32.0,27.0,29.88,NNW,333,0.0,6.0,80,0.00,,,0.03,,2014-02-12 14:22:00,
2014-02-12 08:42:00,33.0,28.0,29.88,NW,308,1.0,4.0,80,0.00,,,0.03,,2014-02-12 14:42:00,
2014-02-12 08:52:00,33.0,28.0,29.90,West,275,1.0,5.0,80,0.00,,,0.03,,2014-02-12 14:52:00,
2014-02-12 09:12:00,33.0,27.0,29.91,WNW,289,2.0,9.0,78,0.00,,,0.03,,2014-02-12 15:12:00,
2014-02-12 09:22:00,34.0,28.0,29.91,NW,310,3.0,8.0,77,0.00,,,0.03,,2014-02-12 15:22:00,
2014-02-12 09:44:00,34.0,27.0,29.90,North,351,1.0,7.0,76,0.00,,,0.03,,2014-02-12 15:44:00,
2014-02-12 09:54:00,35.0,27.0,29.90,NW,313,2.0,8.0,73,0.00,,,0.03,,2014-02-12 15:54:00,
2014-02-12 10:13:00,36.0,28.0,29.90,WNW,289,2.0,7.0,71,0.00,,,0.03,,2014-02-12 16:13:00,
2014-02-12 10:23:00,37.0,27.0,29.90,NNW,328,3.0,10.0,66,0.00,,,0.03,,2014-02-12 16:23:00,
2014-02-12 10:42:00,37.0,27.0,29.89,NW,326,3.0,8.0,66,0.00,,,0.03,,2014-02-12 16:42:00,
2014-02-12 10:53:00,39.0,28.0,29.89,NW,317,2.0,9.0,65,0.00,,,0.03,,2014-02-12 16:53:00,
2014-02-12 11:12:00,40.0,28.0,29.89,WNW,303,2.0,6.0,61,0.00,,,0.03,,2014-02-12 17:12:00,
2014-02-12 11:22:00,40.0,26.0,29.88,NNW,337,4.0,11.0,57,0.00,,,0.03,,2014-02-12 17:22:00,
2014-02-12 11:43:00,41.0,27.0,29.88,WNW,296,4.0,9.0,58,0.00,,,0.03,,2014-02-12 17:43:00,
2014-02-12 11:53:00,42.0,28.0,29.88,WNW,289,2.0,8.0,57,0.00,,,0.03,,2014-02-12 17:53:00,
2014-02-12 12:12:00,44.0,29.0,29.86,NW,309,3.0,8.0,55,0.00,,,0.03,,2014-02-12 18:12:00,
2014-02-12 12:22:00,43.0,28.0,29.86,NW,317,3.0,12.0,56,0.00,,,0.03,,2014-02-12 18:22:00,
2014-02-12 12:42:00,44.0,29.0,29.86,NW,312,3.0,9.0,56,0.00,,,0.03,,2014-02-12 18:42:00,
2014-02-12 12:52:00,45.0,30.0,29.85,NW,307,3.0,10.0,55,0.00,,,0.03,,2014-02-12 18:52:00,
2014-02-12 13:12:00,46.0,31.0,29.83,NNE,18,1.0,8.0,55,0.00,,,0.03,,2014-02-12 19:12:00,
2014-02-12 13:23:00,46.0,31.0,29.82,North,5,2.0,7.0,55,0.00,,,0.02,,2014-02-12 19:23:00,
2014-02-12 13:42:00,46.0,31.0,29.81,West,275,2.0,10.0,56,0.00,,,0.02,,2014-02-12 19:42:00,
2014-02-12 13:52:00,47.0,33.0,29.79,WNW,290,2.0,7.0,57,0.00,,,0.02,,2014-02-12 19:52:00,
2014-02-12 14:11:00,47.0,32.0,29.78,WNW,289,3.0,6.0,56,0.00,,,0.02,,2014-02-12 20:11:00,
2014-02-12 14:22:00,48.0,32.0,29.78,WNW,282,3.0,12.0,54,0.00,,,0.00,,2014-02-12 20:22:00,
2014-02-12 14:42:00,48.0,32.0,29.77,WNW,289,4.0,9.0,54,0.00,,,0.00,,2014-02-12 20:42:00,
2014-02-12 14:52:00,48.0,32.0,29.77,West,268,5.0,11.0,54,0.00,,,0.00,,2014-02-12 20:52:00,
2014-02-12 15:12:00,49.0,33.0,29.76,West,273,2.0,8.0,54,0.00,,,0.00,,2014-02-12 21:12:00,
2014-02-12 15:22:00,49.0,33.0,29.76,WNW,283,3.0,7.0,54,0.00,,,0.00,,2014-02-12 21:22:00,
2014-02-12 15:54:00,49.0,33.0,29.74,NW,313,2.0,7.0,54,0.00,,,0.00,,2014-02-12 21:54:00,
2014-02-12 16:13:00,50.0,34.0,29.74,WSW,252,5.0,10.0,53,0.00,,,0.00,,2014-02-12 22:13:00,
2014-02-12 16:23:00,49.0,33.0,29.74,WNW,293,4.0,8.0,54,0.00,,,0.00,,2014-02-12 22:23:00,
2014-02-12 16:43:00,49.0,33.0,29.74,SW,220,1.0,8.0,54,0.00,,,0.00,,2014-02-12 22:43:00,
2014-02-12 16:53:00,49.0,33.0,29.74,NW,306,2.0,8.0,54,0.00,,,0.00,,2014-02-12 22:53:00,
2014-02-12 17:12:00,49.0,33.0,29.74,NW,304,3.0,7.0,54,0.00,,,0.00,,2014-02-12 23:12:00,
2014-02-12 17:22:00,49.0,33.0,29.74,WNW,282,2.0,6.0,54,0.00,,,0.00,,2014-02-12 23:22:00,
2014-02-12 17:42:00,49.0,33.0,29.74,WSW,243,5.0,9.0,54,0.00,,,0.00,,2014-02-12 23:42:00,
2014-02-12 17:53:00,49.0,34.0,29.75,WNW,290,3.0,8.0,55,0.00,,,0.00,,2014-02-12 23:53:00,
2014-02-12 18:12:00,48.0,33.0,29.75,West,272,1.0,8.0,55,0.00,,,0.00,,2014-02-13 00:12:00,
2014-02-12 18:22:00,48.0,33.0,29.75,West,268,1.0,4.0,56,0.00,,,0.00,,2014-02-13 00:22:00,
2014-02-12 18:42:00,47.0,33.0,29.75,West,268,0.0,2.0,58,0.00,,,0.00,,2014-02-13 00:42:00,
2014-02-12 18:52:00,46.0,32.0,29.75,West,268,0.0,0.0,59,0.00,,,0.00,,2014-02-13 00:52:00,
2014-02-12 19:11:00,45.0,32.0,29.75,West,268,0.0,0.0,61,0.00,,,0.00,,2014-02-13 01:11:00,
2014-02-12 19:21:00,44.0,32.0,29.75,West,268,0.0,0.0,63,0.00,,,0.00,,2014-02-13 01:21:00,
2014-02-12 19:42:00,44.0,33.0,29.76,West,268,0.0,0.0,64,0.00,,,0.00,,2014-02-13 01:42:00,
2014-02-12 19:52:00,42.0,32.0,29.75,West,268,0.0,0.0,67,0.00,,,0.00,,2014-02-13 01:52:00,
2014-02-12 20:22:00,41.0,32.0,29.75,West,268,0.0,0.0,69,0.00,,,0.00,,2014-02-13 02:22:00,
2014-02-12 21:11:00,40.0,32.0,29.74,West,268,0.0,0.0,72,0.00,,,0.00,,2014-02-13 03:11:00,
2014-02-12 21:22:00,40.0,32.0,29.75,West,268,0.0,0.0,73,0.00,,,0.00,,2014-02-13 03:22:00,
2014-02-12 21:43:00,39.0,31.0,29.74,West,268,0.0,1.0,74,0.00,,,0.00,,2014-02-13 03:43:00,
2014-02-12 21:53:00,39.0,32.0,29.75,West,268,0.0,2.0,75,0.00,,,0.00,,2014-02-13 03:53:00,
2014-02-12 22:13:00,39.0,32.0,29.75,West,268,0.0,1.0,76,0.00,,,0.00,,2014-02-13 04:13:00,
2014-02-12 22:23:00,38.0,31.0,29.75,West,268,0.0,0.0,76,0.00,,,0.00,,2014-02-13 04:23:00,
2014-02-12 22:43:00,37.0,30.0,29.73,West,268,0.0,0.0,77,0.00,,,0.00,,2014-02-13 04:43:00,
2014-02-12 22:53:00,37.0,31.0,29.73,West,268,0.0,1.0,78,0.00,,,0.00,,2014-02-13 04:53:00,
2014-02-12 23:12:00,37.0,31.0,29.73,West,268,0.0,0.0,79,0.00,,,0.00,,2014-02-13 05:12:00,
2014-02-12 23:22:00,36.0,30.0,29.74,West,268,0.0,0.0,80,0.00,,,0.00,,2014-02-13 05:22:00,
2014-02-12 23:33:00,36.0,30.0,29.74,West,268,0.0,0.0,80,0.00,,,0.00,,2014-02-13 05:33:00,
2014-02-12 23:43:00,36.0,30.0,29.74,West,268,0.0,0.0,80,0.00,,,0.00,,2014-02-13 05:43:00,
2014-02-12 23:52:00,36.0,30.0,29.73,West,268,0.0,2.0,80,0.00,,,0.00,,2014-02-13 05:52:00,